Regional Weather Roundup
Issued by NWS Spokane, WA

Home | Current Version | Previous Version | Text Only | Print | Product List | Glossary On
Versions: 1 2 3 4 5 6 7 8 9 10 11 12 13 14 15 16 17 18 19 20 21 22 23 24 25 26 27 28 29 30 31 32 33 34 35 36 37 38 39 40 41 42 43 44 45 46 47 48 49 50
000
NZUS01 KOTX 182110
RWROTX
EASTERN WASHINGTON/NORTHERN IDAHO ROUNDUP
NATIONAL WEATHER SERVICE, SPOKANE WA
100 PM PST THU DEC 18 2014

Note: "fair" indicated few or no clouds below 12,000 feet with no
significant weather and/or obstructions to visibility.

...NORTHEAST WASHINGTON AND NORTHERN IDAHO PANHANDLE...

CITY           SKY/WX    TMP DP  RH WIND       PRES   REMARKS
SPOKANE INTL   CLOUDY    41  36  82 S5        29.97S
SPOKANE DOWNTO CLOUDY    42  37  82 CALM      29.99F
COEUR D ALENE  CLOUDY    43  37  81 S7        29.96F
DEER PARK      CLOUDY    37  34  89 CALM      29.99S
SANDPOINT      CLOUDY    32  32 100 CALM      29.99S FOG

...SOUTHEAST WASHINGTON AND SOUTHERN IDAHO PANHANDLE...

CITY           SKY/WX    TMP DP  RH WIND       PRES   REMARKS
WALLA WALLA    FAIR      43  39  86 CALM      29.98F FOG
PULLMAN/MOSCOW CLOUDY    45  37  73 SE10      29.99F
LEWISTON       PTSUNNY   47  41  80 NE3       30.00F
LOWELL           N/A     41  37  86 N3        30.07F

...COLUMBIA BASIN...

CITY           SKY/WX    TMP DP  RH WIND       PRES   REMARKS
EPHRATA        CLOUDY    39  36  89 SE3       29.98F
MOSES LAKE     CLOUDY    40  36  86 SE6       30.00F
TRI CITIES     FAIR      40  38  93 CALM      30.02F
HERMISTON      PTSUNNY   40  36  86 CALM      29.99F FOG
PENDLETON      PTSUNNY   40  38  93 NW5       29.96F FOG

...EAST SLOPES CASCADES...

CITY           SKY/WX    TMP DP  RH WIND       PRES   REMARKS
THE DALLES     CLOUDY    41  36  82 CALM      30.00F
YAKIMA         CLOUDY    42  35  76 CALM      29.98F
ELLENSBURG     CLOUDY    39  33  79 E3        29.95F
WENATCHEE      CLOUDY    39  36  89 SE3       29.97F FOG
OMAK           CLOUDY    37  35  92 S6        29.99F

...SOUTHERN BRITISH COLUMBIA...

CITY           SKY/WX    TMP DP  RH WIND       PRES   REMARKS
PENTICTON      CLOUDY    41  36  81 S14G21    29.94F

...WESTERN MONTANA...

CITY           SKY/WX    TMP DP  RH WIND       PRES   REMARKS
MISSOULA       CLOUDY    33  26  75 W3        30.02F

...NEIGHBORING CITIES...

CITY           SKY/WX    TMP DP  RH WIND       PRES   REMARKS
SEATTLE        LGT RAIN  48  41  76 SE7       29.84F
CALGARY        PTSUNNY   36  21  55 SW7       29.77F



USA.gov is the U.S. government's official web portal to all federal, state and local government web resources and services.